Home > Weather > Iráklion > Past weeks

Flag for Greece Past Weather in Iráklion, Crete, Greece — Yesterday and Last 2 Weeks

Now
77 °F

Clear.


Feels Like: 79 °F
Forecast: 76 / 85 °F
Wind: 14 mph from West

Location: Heraklion Airport

Current Time: Jul 28, 2016 at 7:47:38 AM

Latest Report: Jul 28, 2016 at 4:20 AM


Visibility: 10 mi

Pressure: 29.83 "Hg

Humidity: 74%

Dew Point: 68 °F

Location of IráklionLocation

Past Weather in Iráklion — Graph

°F

Iráklion Temperature Yesterday

Maximum temperature yesterday: 84 °F (at 10:50 AM)
Minimum temperature yesterday: 75 °F (at 3:50 AM)
Average temperature yesterday: 80 °F

High & Low Weather Summary for the Past Weeks

 TemperatureHumidityPressure
High91 °F (Jul 15, 12:50 PM)89% (Jul 17, 5:50 PM)29.95 "Hg (Jul 17, 5:50 PM)
Low68 °F (Jul 13, 5:50 AM)41% (Jul 15, 12:50 PM)29.71 "Hg (Jul 15, 3:50 AM)
Average79 °F71%29.82 "Hg
* Reported Jul 13 4:20 AM — Jul 28 4:20 AM, Iráklion, Weather by CustomWeather, © 2016

Note: Actual official high and low records may vary slightly from our data, if they occured in-between our weather recording intervals... More about our weather records

Advertising

Iráklion Weather History for the Previous 24 Hours

Scroll right to see more
 ConditionsComfort  
Time TempWeatherWind HumidityBarometerVisibility
4:20 AM
Thu, Jul 28
77 °FClear.14 mph74%29.83 "Hg10 mi
3:50 AM77 °FClear.15 mph74%29.83 "Hg10 mi
3:20 AM77 °FClear.14 mph74%29.83 "Hg10 mi
2:50 AM77 °FClear.12 mph74%29.83 "Hg10 mi
2:20 AM77 °FClear.7 mph79%29.86 "Hg10 mi
1:50 AM77 °FClear.8 mph79%29.86 "Hg10 mi
1:20 AM77 °FClear.10 mph79%29.86 "Hg10 mi
12:50 AM77 °FClear.10 mph79%29.86 "Hg10 mi
12:20 AM77 °FClear.9 mph79%29.86 "Hg10 mi
11:50 PM
Wed, Jul 27
77 °FClear.9 mph79%29.86 "Hg10 mi
11:20 PM77 °FClear.10 mph83%29.86 "Hg10 mi
10:50 PM77 °FClear.9 mph83%29.86 "Hg10 mi
10:20 PM77 °FClear.9 mph83%29.86 "Hg10 mi
9:50 PM77 °FClear.8 mph83%29.86 "Hg10 mi
9:20 PM79 °FSunny.9 mph74%29.86 "Hg10 mi
8:50 PM79 °FSunny.12 mph74%29.86 "Hg10 mi
8:20 PM81 °FSunny.12 mph84%29.83 "Hg10 mi
7:50 PM81 °FSunny.12 mph84%29.83 "Hg10 mi
7:20 PM81 °FSunny.12 mph84%29.83 "Hg10 mi
6:50 PM81 °FSunny.12 mph84%29.83 "Hg10 mi
6:20 PM82 °FPassing clouds.14 mph79%29.83 "HgN/A
5:50 PM82 °FPassing clouds.16 mph79%29.83 "HgN/A
5:20 PM82 °FPassing clouds.18 mph79%29.83 "HgN/A
4:50 PM82 °FPassing clouds.18 mph79%29.83 "HgN/A
4:20 PM84 °FPassing clouds.17 mph74%29.86 "HgN/A
3:50 PM84 °FPassing clouds.17 mph74%29.86 "HgN/A
3:20 PM84 °FSunny.18 mph74%29.86 "Hg10 mi
2:50 PM84 °FSunny.18 mph74%29.86 "Hg10 mi
1:50 PM84 °FPassing clouds.20 mph74%29.83 "HgN/A
12:20 PM84 °FPassing clouds.16 mph70%29.83 "HgN/A
11:50 AM84 °FPassing clouds.16 mph70%29.83 "HgN/A
11:20 AM84 °FPassing clouds.14 mph66%29.83 "HgN/A
10:50 AM84 °FPassing clouds.15 mph66%29.83 "HgN/A
10:20 AM82 °FSunny.16 mph70%29.83 "Hg10 mi
9:50 AM82 °FSunny.16 mph70%29.83 "Hg10 mi
9:20 AM82 °FSunny.14 mph66%29.83 "Hg10 mi
8:50 AM82 °FSunny.16 mph66%29.83 "Hg10 mi
8:20 AM82 °FSunny.16 mph66%29.83 "Hg10 mi
7:50 AM82 °FSunny.15 mph66%29.83 "Hg10 mi
7:20 AM79 °FClear.15 mph74%29.83 "Hg10 mi
Weather by CustomWeather, © 2016

See weather overviewHow to use our weather pages